Home   Weather   Feldkirch   Past weeks

Flag for Austria Past Weather in Feldkirch, Vorarlberg, Austria — Yesterday and Last 2 Weeks

Now
14 °F

Cold.


Feels Like: 14 °F
Forecast: 21 / 39 °F
Wind: 2 mph from Southeast

Location: Feldkirch

Current Time: Jan 22, 2017 at 5:02:31 am

Latest Report: Jan 22, 2017 at 4:00 am


Visibility: N/A

Pressure: 30.43 "Hg

Humidity: 93%

Dew Point: 13 °F

Location of FeldkirchLocation

Past Weather in Feldkirch — Graph

°F

Feldkirch Temperature Yesterday

Maximum temperature yesterday: 20 °F (at 2:00 pm)
Minimum temperature yesterday: 15 °F (at 6:00 am)
Average temperature yesterday: 17 °F

High & Low Weather Summary for the Past Weeks

 TemperatureHumidityPressure
High43 °F (Jan 13, 3:00 am)98% (Jan 12, 6:00 am)30.74 "Hg (Jan 12, 6:00 am)
Low6 °F (Jan 7, 4:00 am)60% (Jan 13, 5:00 am)29.47 "Hg (Jan 13, 2:00 am)
Average24 °F86%30.28 "Hg
* Reported Jan 7 3:00 am — Jan 22 3:00 am, Feldkirch, Weather by CustomWeather, © 2017

Note: Actual official high and low records may vary slightly from our data, if they occured in-between our weather recording intervals... More about our weather records

Advertising

Feldkirch Weather History for the Previous 24 Hours

Scroll right to see more
 ConditionsComfort  
Time TempWeatherWind HumidityBarometerVisibility
3:00 am
Sun, Jan 22
15 °FCold.1 mph94%30.44 "HgN/A
2:00 am14 °FCold.1 mph92%30.45 "HgN/A
1:00 am15 °FCold.1 mph93%30.45 "HgN/A
12:00 am16 °FCold.1 mph93%30.46 "HgN/A
11:00 pm
Sat, Jan 21
16 °FCold.1 mph93%30.46 "HgN/A
10:00 pm17 °FCold.No wind93%30.46 "HgN/A
9:00 pm17 °FCold.1 mph94%30.46 "HgN/A
8:00 pm17 °FCold.1 mph93%30.47 "HgN/A
7:00 pm18 °FCold.No wind94%30.46 "HgN/A
6:00 pm18 °FCold.No wind94%30.46 "HgN/A
5:00 pm18 °FCold.2 mph93%30.46 "HgN/A
4:00 pm19 °FCold.1 mph92%30.46 "HgN/A
3:00 pm20 °FCold.1 mph92%30.45 "HgN/A
2:00 pm20 °FCold.1 mph92%30.47 "HgN/A
1:00 pmN/APassing clouds.6 mphN/AN/A3 mi
12:00 pm19 °FCold.No wind93%30.51 "HgN/A
11:00 am18 °FCold.No wind94%30.53 "HgN/A
10:00 am17 °FLow clouds.1 mph96%30.53 "Hg1 mi
9:00 am17 °FCold.1 mph94%30.53 "HgN/A
8:00 am17 °FCold.1 mph94%30.53 "HgN/A
7:00 am16 °FLow clouds.1 mph97%30.53 "Hg1 mi
6:00 am15 °FCold.2 mph93%30.52 "HgN/A
5:00 am15 °FCold.No wind93%30.52 "HgN/A
Weather by CustomWeather, © 2017

See weather overviewHow to use our weather pages